Tracking 17694 objects as of 30-May-2016
HD Live streaming from Space Station
objects crossing your sky now

DELTA 2 DEB

Track DELTA 2 DEB now!
10-day predictions


NORAD ID: 27765
Int'l Code: 2000-040D
Perigee: 184.0 km
Apogee: 3,877.4 km
Inclination: 38.9 °
Period: 127.7 minutes
Semi major axis: 8401 km
RCS: 0.0144 m2 (small)
Launch date: July 16, 2000
Source: United States (US)
Launch site: AIR FORCE EASTERN TEST RANGE (AFETR)

Note: This is SATELLITE DEBRIS
Your satellite tracking list
Your tracking list is empty





NASA's NSSDC Master Catalog

Two Line Element Set (TLE):
1 27765U 00040D   16150.35868824  .00165539  20349-5  43626-3 0  9994
2 27765  38.8507 129.4396 2197959 142.6536 234.9340 11.27333904383364
Source of the keplerian elements: AFSPC

N2YO: 515